This is the latest recevied weather packets stored in our database for station/object OK1FPA-13. If no packets are shown the sender has not sent any weather packets the latest 10 day(s).
| Time | Temp. | Humidity | Pressure | Rain* | Wind** | Luminosity | Snow |
|---|---|---|---|---|---|---|---|
| 1777631667 | 18.89° C | 32% | 1027 hPa | - | - | - | - |
| 1777631067 | 20.56° C | 33% | 1027.1 hPa | - | - | - | - |
| 1777630467 | 19.44° C | 34% | 1027.2 hPa | - | - | - | - |
| 1777629867 | 19.44° C | 36% | 1027.4 hPa | - | - | - | - |
| 1777629267 | 18.89° C | 37% | 1027.5 hPa | - | - | - | - |
| 1777628667 | 18.33° C | 35% | 1027.5 hPa | - | - | - | - |
| 1777628067 | 18.89° C | 36% | 1027.6 hPa | - | - | - | - |
| 1777627467 | 18.33° C | 38% | 1027.7 hPa | - | - | - | - |
| 1777626868 | 18.33° C | 37% | 1027.8 hPa | - | - | - | - |
| 1777626268 | 17.22° C | 39% | 1027.8 hPa | - | - | - | - |
| 1777625667 | 17.22° C | 40% | 1027.9 hPa | - | - | - | - |
| 1777625067 | 16.67° C | 40% | 1028 hPa | - | - | - | - |
| 1777624467 | 16.67° C | 40% | 1028 hPa | - | - | - | - |
| 1777623867 | 16.11° C | 42% | 1028 hPa | - | - | - | - |
| 1777623267 | 16.11° C | 41% | 1028.1 hPa | - | - | - | - |
| 1777622668 | 15.56° C | 43% | 1028.2 hPa | - | - | - | - |
| 1777622067 | 15° C | 42% | 1028.2 hPa | - | - | - | - |
| 1777621467 | 14.44° C | 45% | 1028.3 hPa | - | - | - | - |
| 1777620867 | 13.89° C | 45% | 1028.4 hPa | - | - | - | - |
| 1777620267 | 13.33° C | 48% | 1028.4 hPa | - | - | - | - |
| 1777619667 | 12.78° C | 46% | 1028.4 hPa | - | - | - | - |
| 1777619067 | 12.22° C | 49% | 1028.4 hPa | - | - | - | - |
| 1777618467 | 11.11° C | 53% | 1028.4 hPa | - | - | - | - |
| 1777617867 | 11.11° C | 55% | 1028.4 hPa | - | - | - | - |
| 1777617267 | 10.56° C | 57% | 1028.5 hPa | - | - | - | - |
* Rain since midnight (hover to see other rain measurements)
** Current wind speed in m/s (hover to see current wind gust speed)